C/2015 H2 ( PanSTARRS )

Japanese version
Home page
Updated on October 8, 2017

---------------------------------------------------------------------

* Profile

Discovery Date April 24, 2015
Magnitude 19.7 mag
Discoverer Pan-STARRS 1 telescope (Haleakala)

* Pictures

* Orbital Elements

Epoch 2016 Sept. 9.0 TT = JDT 2457640.5
T 2016 Sept. 13.26449 TT                                MPCW
q   4.9670925            (2000.0)            P               Q
z  -0.0006465      Peri.  287.90686     +0.17539246     +0.98039915
 +/-0.0000018      Node   350.69240     -0.55230520     +0.02251981
e   1.0032110      Incl.   33.70514     -0.81498248     +0.19573035
From 90 observations 2015 Apr. 20-2016 Nov. 3, mean residual 0".4.

* Magnitudes Graph

        m1 = 7.0 + 5 log d + 10.0 log r

---------------------------------------------------------------------

The orbital elements are published on M.P.E.C. 2016-V116.
The magnitudes graphs are made with Comet for Windows.

---------------------------------------------------------------------

Copyright(C) Seiichi Yoshida (comet@aerith.net). All rights reserved.